Location: Julian California
(33.0790°N, 116.6010°W)
Time: 10:01:57
(UTC-07:00)

Nadezhda 2 Rocket - Pass Details

Date: 14 June 2018
Orbit: 949 x 1010 km, 83.0° (Epoch: 15 October)

Event Time Altitude Azimuth Distance (km) Brightness Sun altitude
Rises 22:24:09 0° 355° (N) 3,706 8.5 -24.2°
Reaches altitude 10° 22:26:42 10° 357° (N) 2,746 7.6 -24.5°
Maximum altitude 22:33:00 80° 84° (E) 990 4.4 -25.2°
Enters shadow 22:34:14 59° 157° (SSE) 1,106 4.4 -25.4°
